Regional Weather Roundup
Issued by NWS

Home | Current Version | Previous Version | Text Only | Print | Product List | Glossary On
Versions: 1 2 3 4 5 6 7 8 9 10 11 12 13 14 15 16 17 18 19 20 21 22 23 24 25 26 27 28 29 30 31 32 33 34 35 36 37 38 39 40 41 42 43 44 45 46 47 48 49 50
000
ASUS43 KMPX 302010
RWRMN
WEATHER ROUNDUP FOR MINNESOTA
NATIONAL WEATHER SERVICE TWIN CITIES/CHANHASSEN MN
300 PM CDT SUN AUG 30 2015


NOTE: "FAIR" INDICATES FEW OR NO CLOUDS BELOW 12,000 FEET WITH NO
SIGNIFICANT WEATHER AND/OR OBSTRUCTIONS TO VISIBILITY. N/A MEANS
CURRENT SKY AND/OR WEATHER CONDITIONS ARE NOT AVAILABLE.

MNZ060>063-068>070-302100-
   Twin Cities Metro

CITY           SKY/WX    TMP DP  RH WIND       PRES   REMARKS
TWIN CITIES    MOSUNNY   79  63  57 S12       29.95F
ST PAUL        SUNNY     80  66  62 S15       29.95F
CRYSTAL        SUNNY     81  63  54 S13       29.93F
BLAINE         SUNNY     81  64  57 S12       29.94F
LAKEVILLE      SUNNY     77  66  69 S8        29.96F
EDEN PRAIRIE   SUNNY     80  65  59 S12       29.94F
SOUTH ST PAUL  SUNNY     78  64  62 SE9       29.95F
LAKE ELMO      FAIR      77  66  69 S13G18    29.97F
$$
MNZ001>005-007-008-013>017-022>024-027-028-302100-
   Northwest Minnesota

CITY           SKY/WX    TMP DP  RH WIND       PRES   REMARKS
BEMIDJI        MOSUNNY   82  67  61 S12       29.82F
HALLOCK        MOSUNNY   86  66  51 S18       29.68F
ROSEAU         MOSUNNY   84  72  65 S13       29.74F
WARROAD        MOSUNNY   84  73  70 SE8       29.75F HX  91
THIEF RVR FALL SUNNY    N/A N/A N/A S14       29.75F
CROOKSTON      MOSUNNY   84  66  54 S20G25    29.74F
FOSSTON        SUNNY     86  63  45 S14       29.79F
DETROIT LAKES  SUNNY     81  66  61 S15       29.84S
MOORHEAD       SUNNY     84  66  54 S18       29.78F
PARK RAPIDS    SUNNY     84  66  54 S14       29.85F
MAHNOMEN       FAIR      84  67  55 S14       29.80S
$$
MNZ006-009>011-018-025>026-302100-
   North Central Minnesota

CITY           SKY/WX    TMP DP  RH WIND       PRES   REMARKS
BAUDETTE       MOSUNNY   84  68  58 S12       29.78F
FLAG ISLAND    MOSUNNY   73  66  78 S9        29.75F
INTL FALLS     MOSUNNY   81  68  64 VRB5      29.82S
WASKISH        PTSUNNY   81  70  69 SE6       29.80F
BIG FORK       PTSUNNY   79  68  69 S5        29.85F
LONGVILLE      MOSUNNY   77  66  69 SE10      29.87S
GRAND RAPIDS     N/A     79  64  61 S12       29.87F
CRANE LAKE     PTSUNNY   75  70  83 S3        29.85F
COOK           PTSUNNY   81  66  61 S5        29.86F
WALKER         FAIR      80  68  65 S10       29.85S
$$
MNZ012-019>021-037-302100-
   Northeast Minnesota

CITY           SKY/WX    TMP DP  RH WIND       PRES   REMARKS
DULUTH         SUNNY     80  66  62 SW12      29.90F
ELY            MOSUNNY   82  64  54 SW9       29.87F
HIBBING        MOSUNNY   82  66  58 VRB6      29.87F
EVELETH        MOSUNNY   81  66  61 S7        29.89F
DULUTH HARBOR  SUNNY     82  70  65 SW12      29.87F
TWO HARBORS    SUNNY     82  70  65 S8        29.86F
SILVER BAY     SUNNY     81  66  61 S10       29.85F
GRAND MARAIS     N/A     60  55  83 W8        29.85F
G MARAIS ARPRT MOSUNNY   75  63  64 S7        29.90F
$$
MNZ029>031-032-039>041-046>048-054>057-064-302100-
   West Central Minnesota

CITY           SKY/WX    TMP DP  RH WIND       PRES   REMARKS
FERGUS FALLS   SUNNY     81  68  65 S15       29.82F
WHEATON        SUNNY     81  70  69 SE14      29.84F
MORRIS         SUNNY     81  70  69 S18       29.86F
ALEXANDRIA     MOSUNNY   80  67  64 S17       29.90S
ELBOW LAKE     FAIR      79  69  71 S13       29.85F
WADENA         SUNNY     81  66  61 S14       29.86F
GLENWOOD       SUNNY     81  66  61 S15       29.91S
APPLETON       SUNNY     82  66  57 S13       29.87S
BENSON         SUNNY     81  66  61 S12       29.89S
ORTONVILLE     SUNNY     82  66  57 S9        29.86S
MADISON        SUNNY     82  66  57 S13       29.87F
WILLMAR        FAIR      81  70  69 S7        29.92F
$$
MNZ033>034-036-042>043-049>051-058-059-302100-
   Central Minnesota

CITY           SKY/WX    TMP DP  RH WIND       PRES   REMARKS
ST CLOUD       SUNNY     78  65  63 S15       29.91F
SAUK CENTRE    FAIR      78  67  68 S10       29.91S
PAYNESVILLE    SUNNY     78  65  64 SE7G16    29.92F
AITKIN         MOSUNNY   79  66  65 S10G16    29.89F
PINE RIVER     SUNNY     79  66  65 S12       29.91F
BRAINERD       SUNNY     79  66  64 S12       29.90S
STAPLES        SUNNY     79  64  61 S12       29.88S
LONG PRAIRIE   FAIR      77  64  65 SE13      29.90F
LITTLE FALLS   SUNNY     79  63  57 S13       29.91S
LITCHFIELD     SUNNY     81  68  65 S7        29.93F
BUFFALO        SUNNY     78  63  60 SE12      29.95F
MAPLE LAKE     SUNNY     78  68  70 S8        29.94F
$$
MNZ037-044-045-052-053-302100-
   East Central Minnesota

CITY           SKY/WX    TMP DP  RH WIND       PRES   REMARKS
PRINCETON      SUNNY     81  64  57 S10       29.93F
MORA           SUNNY     75  63  64 S9        29.94F
CAMBRIDGE      SUNNY     81  64  57 S10       29.92F
RUSH CITY      SUNNY     78  65  64 S8        29.93F
MOOSE LAKE     SUNNY     77  64  65 SW9       29.89F
HINCKLEY       FAIR      79  68  69 S9        29.93S
CLOQUET        SUNNY     79  64  61 S9        29.90F
MCGREGOR       SUNNY     79  66  65 S8        29.89F
$$
MNZ071>073-080-081-089-090-097-098-302100-
   Southwest Minnesota

CITY           SKY/WX    TMP DP  RH WIND       PRES   REMARKS
MONTEVIDEO     SUNNY     82  70  65 SW14G20   29.91F
GRANITE FALLS  SUNNY     81  68  65 S13G20    29.92F
CANBY          MOSUNNY   83  65  54 S12       29.89F
MARSHALL       SUNNY     81  63  54 S16G23    29.93F
REDWOOD FALLS  SUNNY     82  67  60 S14       29.92F
OLIVIA         SUNNY     77  63  61 S12       29.92S
PIPESTONE      SUNNY     75  64  69 S13       29.96S
WINDOM         SUNNY     79  64  61 S12G17    29.97F
WORTHINGTON    SUNNY     75  64  69 S14       29.97F
JACKSON        SUNNY     77  68  73 S14       30.00S
TRACY          SUNNY     79  68  69 S12G17    29.94F
SLAYTON        SUNNY     78  65  65 S6G16     29.97F
$$
MNZ065>067-074>077-082>085-091>093-302100-
   South Central Minnesota

CITY           SKY/WX    TMP DP  RH WIND       PRES   REMARKS
MANKATO        SUNNY     75  64  69 S12G17    29.97F
NEW ULM        SUNNY     79  64  61 S14       29.95F
ST JAMES       SUNNY     79  68  69 S12       29.97F
FAIRMONT       SUNNY     77  64  65 S15       29.98F
GLENCOE        SUNNY     80  67  65 SE10      29.94F
FARIBAULT      SUNNY     75  66  73 S13G18    29.99F
OWATONNA       SUNNY     75  64  69 S12       30.00F
WASECA         SUNNY     73  64  73 S12       30.01F
ALBERT LEA     SUNNY     73  64  73 S13G20    30.01F
$$
MNZ078>079-086>088-094>096-302100-
   Southeast Minnesota

CITY           SKY/WX    TMP DP  RH WIND       PRES   REMARKS
ROCHESTER      MOSUNNY   73  65  75 S13G18    30.04F
RED WING       SUNNY     79  64  61 S8        29.97F
STANTON        SUNNY     78  65  65 S10G16    29.97F
DODGE CENTER   SUNNY     72  64  78 S14       30.02F
WINONA         CLOUDY    73  63  68 SW5       30.02F
AUSTIN         MOSUNNY   73  64  73 S13       30.03F
PRESTON        PTSUNNY   70  63  77 S10       30.05F
$$
ABBREVIATIONS USED IN REMARKS
   TC - TEMPERATURES IN CELSIUS
  WCI - WIND CHILL INDEX
   HX - HEAT INDEX
  VSB - VISIBILITY
$$


USA.gov is the U.S. government's official web portal to all federal, state and local government web resources and services.